Location: Bjelajci
(45.0103°N, 16.1758°E)
Time: 09:44:30
(UTC+00:00)

Cosmos 1242 Rocket - Pass Details

Date: 14 July 2020
Orbit: 448 x 487 km, 81.2° (Epoch: 07 August)

Event Time Altitude Azimuth Distance (km) Brightness Sun altitude
Rises 01:42:21 0° 353° (N) 2,464 6.9 -13.9°
Reaches altitude 10° 01:44:27 10° 358° (N) 1,589 5.9 -13.7°
Maximum altitude 01:47:52 56° 77° (ENE) 544 3.1 -13.3°
Drops below altitude 10° 01:51:17 10° 157° (SSE) 1,587 4.9 -12.9°
Enters shadow 01:52:25 - 160° (SSE) 2,056 5.5 -12.8°
